Location: Bronschhofen
(47.4788°N, 9.0353°E)
Time: 19:33:05
(UTC+00:00)

Helios 1B rocket - Pass Details

Date: 20 May 2022
Orbit: 569 x 577 km, 98.2° (Epoch: 06 July)

Event Time Altitude Azimuth Distance (km) Brightness Sun altitude
Rises 02:18:18 0° 18° (NNE) 2,789 7.2 -11.6°
Reaches altitude 10° 02:20:31 10° 24° (NNE) 1,885 6.3 -11.4°
Maximum altitude 02:24:30 51° 100° (E) 727 3.2 -10.9°
Drops below altitude 10° 02:28:26 10° 177° (S) 1,867 4.6 -10.5°
Enters shadow 02:29:20 - 180° (S) 2,230 5.0 -10.4°
